Location: Teramo
(42.6500°N, 13.7000°E)
Time: 06:32:27
(UTC+01:00)

ISS - Visible Passes

Search period start: 20 January 2019 00:00
Search period end: 30 January 2019 00:00
Orbit: 404 x 410 km, 51.6° (Epoch: 20 January)

Date Brightness Start Highest point End Pass type
(mag) Time Alt. Az. Time Alt. Az. Time Alt. Az.
21 Jan -2.2 18:44:02 10° SSW 18:46:04 23° SSE 18:46:04 23° SSE visible
22 Jan -1.6 17:53:50 10° SSE 17:55:38 14° SE 17:57:11 11° ESE visible
22 Jan -1.5 19:28:29 10° WSW 19:29:55 24° WSW 19:29:55 24° WSW visible
23 Jan -3.8 18:37:09 10° SW 18:40:25 61° SE 18:40:56 51° E visible
24 Jan -2.8 17:46:07 10° SSW 17:49:06 33° SE 17:51:52 11° ENE visible
24 Jan -1.9 19:22:31 10° W 19:24:36 29° WNW 19:24:36 29° WNW visible
25 Jan -3.4 18:30:52 10° WSW 18:34:07 58° NNW 18:35:27 31° NE visible
26 Jan -3.8 17:39:24 10° SW 17:42:41 81° SE 17:46:00 10° ENE visible
26 Jan -1.7 19:16:48 10° WNW 19:18:57 22° NNW 19:18:57 22° NNW visible
27 Jan -2.4 18:24:56 10° W 18:27:55 31° NNW 18:29:41 19° NNE visible
28 Jan -1.6 19:11:06 10° NW 19:13:05 18° NNW 19:13:05 18° NNW visible
29 Jan -1.9 18:19:10 10° WNW 18:21:48 21° NNW 18:23:44 14° NNE visible
